TimeCST,TemperatureF,Dew PointF,Humidity,Sea Level PressureIn,VisibilityMPH,Wind Direction,Wind SpeedMPH,Gust SpeedMPH,PrecipitationIn,Events,Conditions,WindDirDegrees,DateUTC
12:38 AM,21.2,15.8,80,30.11,5.0,NNW,19.6,-,N/A,,Haze,330,2012-12-29 06:38:00
12:53 AM,21.0,15.1,78,30.14,5.0,NW,17.3,-,N/A,,Haze,310,2012-12-29 06:53:00
1:53 AM,19.9,14.0,78,30.16,5.0,NW,11.5,-,N/A,,Haze,320,2012-12-29 07:53:00
2:30 AM,19.4,14.0,80,30.14,5.0,NW,12.7,-,N/A,,Haze,320,2012-12-29 08:30:00
2:53 AM,19.9,14.0,78,30.19,5.0,NW,9.2,-,N/A,,Haze,320,2012-12-29 08:53:00
3:53 AM,19.0,12.9,77,30.20,7.0,NNW,12.7,-,N/A,,Overcast,340,2012-12-29 09:53:00
4:53 AM,19.0,14.0,81,30.22,8.0,NNW,11.5,-,N/A,,Overcast,330,2012-12-29 10:53:00
5:53 AM,19.9,14.0,78,30.22,8.0,WNW,13.8,-,N/A,,Overcast,290,2012-12-29 11:53:00
6:53 AM,19.9,14.0,78,30.25,10.0,WNW,10.4,-,N/A,,Overcast,300,2012-12-29 12:53:00
7:53 AM,18.0,12.9,81,30.27,9.0,West,11.5,-,N/A,,Overcast,280,2012-12-29 13:53:00
8:53 AM,18.0,12.0,78,30.29,7.0,West,11.5,-,N/A,,Overcast,270,2012-12-29 14:53:00
9:53 AM,18.0,12.0,78,30.32,8.0,WNW,6.9,-,N/A,,Mostly Cloudy,300,2012-12-29 15:53:00
10:04 AM,19.4,12.2,74,30.27,7.0,WNW,8.1,-,N/A,,Scattered Clouds,300,2012-12-29 16:04:00
10:53 AM,21.0,12.9,71,30.32,8.0,West,8.1,-,N/A,,Clear,260,2012-12-29 16:53:00
11:53 AM,25.0,14.0,63,30.30,10.0,West,9.2,-,N/A,,Clear,280,2012-12-29 17:53:00
12:53 PM,28.0,15.1,58,30.27,10.0,WSW,10.4,-,N/A,,Clear,250,2012-12-29 18:53:00
1:53 PM,30.9,16.0,54,30.26,10.0,West,8.1,-,N/A,,Clear,280,2012-12-29 19:53:00
2:53 PM,33.1,18.0,54,30.27,10.0,WSW,10.4,-,N/A,,Clear,240,2012-12-29 20:53:00
3:53 PM,33.1,18.0,54,30.28,10.0,WSW,5.8,-,N/A,,Clear,250,2012-12-29 21:53:00
4:53 PM,30.9,19.0,61,30.29,10.0,West,5.8,-,N/A,,Clear,260,2012-12-29 22:53:00
5:53 PM,26.1,17.1,69,30.29,10.0,SSW,4.6,-,N/A,,Clear,210,2012-12-29 23:53:00
6:53 PM,25.0,17.1,72,30.31,10.0,SSW,5.8,-,N/A,,Clear,200,2012-12-30 00:53:00
7:53 PM,25.0,17.1,72,30.31,10.0,Calm,Calm,-,N/A,,Clear,0,2012-12-30 01:53:00
8:53 PM,26.1,17.1,69,30.30,10.0,South,3.5,-,N/A,,Clear,170,2012-12-30 02:53:00
9:53 PM,23.0,16.0,74,30.31,10.0,Calm,Calm,-,N/A,,Clear,0,2012-12-30 03:53:00
10:53 PM,17.1,10.9,77,30.32,10.0,Calm,Calm,-,N/A,,Clear,0,2012-12-30 04:53:00
11:53 PM,17.1,12.0,81,30.32,9.0,Calm,Calm,-,N/A,,Clear,0,2012-12-30 05:53:00